STARLINK-32435, 61259

Orbit data source: Space-Track

STARLINK-32435, 61259 is a payload satellite owned by SpaceX/Seattle (US) in LEO that was launched on Wed, 25 Sep 2024 UTC via an FALCON 9 launch vehicle from the Air Force Western Test Range (AFWTR). Payload-class satellites include a variety of spacecraft equipped with specific instruments for various scientific and technological missions. These include communications satellites like Starlink; space stations such as the ISS; scientific satellites like the Hubble; Earth observation satellites from companies like Planet Labs, Umbra, and HawkEye 360; GPS; miniature CubeSats for education and research; and military/defense satellites.

Loading next visibility...
Identifier
61259, 2024-175S
Orbit
LEO
Last TLE update
16 hours ago
Origin
Manufacturer
SpaceX/Seattle
Mission
Operational Commercial Communications
Bus & Motor
STARLINK V2M, Unknown motor
Mass
730 kg wet, ~700 kg dry
Launch date (UTC)
2024-09-25 (9 months ago)
Launch vehicle
FALCON 9
Launch site
Air Force Western Test Range (AFWTR)
Object type
Payload
Rocket body
Debris
Shape & HBR
Box + 2 Pan, 29 m
Radar Cross Section
33.884 m², Large (>1 m²)

Expand to show TLE details & history

TLE from 16 hours ago
0 STARLINK-32435
1 61259U 24175S   25191.45131962  .00001507  00000-0  62995-4 0  9999
2 61259  53.1593 239.3707 0000932  86.5563 273.5544 15.30196830 44362
Epoch: 2025-07-10T10:49Z
TLE epoch observation values (Epoch: 2025-07-10T10:49:54.015Z)
Latitude
-0.00003°
Longitude
148.2782°
Altitude
476.085 km
Speed
7.629 km/s
True Right ascension
15h 57m 28s
True Declination
0° 00' 00"
Sunlit
Object was in full shadow at epoch
Visualization orbit readout
Latitude
3.62236°
Longitude
147.94319°
Altitude
475.652 km
Speed
7.63 km/s
Apparent Right ascension
18h 10m 30s
Apparent Declination
-54° 35' 53"
Sunlit
Object is in full shadow
Visualization observer readout
Local Sidereal Time
14:48:10
Azimuth
152.541° SSE
Elevation
-13.939°
Doppler factor
1
Orbital elements
Apogee altitude
476.12 km
Perigee altitude
474.842 km
Semi-major axis
6,853.618 km
Eccentricity
0.00009
Inclination
53.1593°
RAAN
239.3707°
Arg. of periapsis
86.5563°
True anomaly
Unknown
Mean anomaly
273.5544°
Eccentric anomaly
Unknown
Mean motion
3.82528 °/min
Orbital period
94.11 mins
BSTAR
0.000062995
Loading maneuver chart data...
Loading SW <> Apogee altitude chart data...
Loading historical data...
Loading historical data...
Loading historical data...
Loading historical data...
Loading historical data...
Loading historical data...
Loading historical data...

STARLINK-32435 Visibility forecast

Observer location: undefined°, undefined°

Span
Click to sort rows by Start time (UTC) header in descending order
Start Az.
Max El. time (UTC)
Max El. Az.
Max El.
End time (UTC)
End Az.
7 mins2025-07-11 05:48:36.258Z223.145° SW2025-07-11 05:51:36.258Z199.068° SSW41.431°2025-07-11 05:55:36.258Z53.1° ENE
4 mins2025-07-11 07:28:36.258Z300.108° NW2025-07-11 07:30:36.258Z341.952° N18.806°2025-07-11 07:32:36.258Z19.292° NNE
4 mins2025-07-11 10:46:36.258Z343.132° N2025-07-11 10:48:36.258Z17.811° NNE15.032°2025-07-11 10:50:36.258Z52.997° ENE
6 mins2025-07-11 12:24:36.258Z319.241° NNW2025-07-11 12:27:36.258Z76.956° E39.699°2025-07-11 12:30:36.258Z119.185° SE
|